Location: *
(39.8341°S, 176.3829°E)
Time: 11:00:48
(UTC+00:00)

Daily predictions for brighter satellites

Satellite Brightness Start Highest point End
(mag) Time Altitude Azimuth Time Altitude Azimuth Time Altitude Azimuth
ALOS 2 4.4 12:08:09 10° SSE 12:10:34 28° SE 12:10:34 28° SE
ATLAS 3B R/B 4.0 12:17:19 10° SSW 12:22:51 32° SE 12:27:40 14° ENE
NOSS 3-1 (A) 4.4 12:18:51 10° SW 12:22:39 32° WSW 12:22:39 32° WSW
Cosmos 2154 Rocket 4.1 12:27:07 65° E 12:27:07 65° E 12:33:16 10° SSE
IDEFIX/ARIANE 42P 3.3 12:33:56 46° ESE 12:33:56 46° ESE 12:38:47 10° S
Cosmos 2181 Rocket 4.0 12:28:35 10° S 12:34:53 76° WSW 12:34:53 76° WSW
Cosmos 2297 Rocket 2.5 12:35:59 61° SE 12:35:59 61° SE 12:40:49 10° SSE
Cosmos 2322 4.1 12:30:22 10° SSW 12:35:06 60° SW 12:35:06 60° SW
COSMOS 2428 2.9 12:31:34 10° SSW 12:36:30 66° SSW 12:36:30 66° SSW
Cosmos 1295 Rocket 4.4 12:37:39 82° SW 12:37:39 82° SW 12:43:54 10° S
Cosmos 2237 Rocket 2.9 12:44:35 10° SSW 12:50:10 49° ESE 12:51:00 46° E
ARIANE 5 R/B 4.0 12:50:58 10° S 12:54:02 34° SW 12:54:02 34° SW
Meteor 1-21 4.2 12:52:07 10° S 12:57:36 79° SSE 12:57:36 79° SSE
Cosmos 1538 Rocket 4.3 13:02:27 66° ESE 13:02:27 66° ESE 13:07:16 10° SSE
SeaSat 1 4.5 13:05:03 17° WSW 13:05:03 17° WSW 13:06:35 10° SW
Cosmos 1610 Rocket 4.3 13:09:46 82° WNW 13:09:55 83° W 13:16:11 10° S
USA 267 4.1 13:14:57 34° W 13:14:57 34° W 13:19:06 10° WSW
Sich 1 4.1 13:15:28 41° S 13:15:28 41° S 13:18:22 10° S
Nadezhda 3 Rocket 3.9 13:07:49 10° S 13:14:10 73° W 13:14:19 72° WNW
Cosmos 2074 Rocket 4.5 13:14:02 46° W 13:14:13 46° WSW 13:20:20 10° S
ADEOS II 3.8 13:17:17 19° ENE 13:19:58 29° ESE 13:24:27 10° S
Cosmos 2227 Rocket 2.1 13:23:29 78° ENE 13:23:29 78° ENE 13:29:13 10° SSE
CZ-2C R/B 3.2 13:20:27 10° SSE 13:25:33 46° E 13:25:54 45° ENE
ARGOS Delta rocket 4.1 13:27:21 59° S 13:27:21 59° S 13:31:04 10° S
MSX 4.1 13:30:13 54° W 13:30:13 54° W 13:35:32 10° SSW
NOSS 0 Rocket 4.4 13:24:42 10° SW 13:29:45 44° W 13:29:45 44° W
Cosmos 1805 Rocket 4.2 13:32:21 54° SSW 13:32:21 54° SSW 13:35:55 10° S
FENGYUN 3A 3.6 13:33:28 75° W 13:33:28 75° W 13:38:51 10° SSW
Cosmos 1339 Rocket 4.4 13:27:45 10° SSW 13:33:53 69° W 13:34:14 67° WNW
ATLAS 2AS CENTAUR R/B 4.3 13:34:58 18° W 13:38:56 28° SW 13:45:05 10° SSE
H-2A R/B 3.4 13:41:11 31° E 13:42:07 34° ESE 13:45:56 10° S
NPP 4.1 13:45:31 45° WSW 13:45:31 45° WSW 13:50:10 10° SSW
ARIANE 6 FM1 Upper Stage 4.3 13:46:45 27° ENE 13:46:45 27° ENE 13:50:10 10° ESE
Cosmos 962 Rocket 4.4 13:46:37 61° WNW 13:47:24 67° W 13:53:38 10° S
Cosmos 923 Rocket 3.8 13:47:42 78° NNE 13:47:57 82° ENE 13:53:13 10° SSE
Cosmos 44 3.7 13:48:08 54° WSW 13:48:16 54° SW 13:53:07 10° SSE
Cosmos 2263 Rocket 2.2 13:51:06 63° NNE 13:51:54 73° ENE 13:57:37 10° SSE
SL-8 Rocket 3.9 13:50:58 60° NNW 13:52:11 79° W 13:58:33 10° S
CZ-2D R/B 2.1 13:52:09 58° NNE 13:53:13 81° ESE 13:58:38 10° SSW
Cosmos 1959 Rocket 4.4 13:52:42 56° N 13:54:08 85° E 14:00:20 10° S
ACS3 Solar Sail 3.4 13:48:54 10° NE 13:54:19 32° ESE 13:59:43 10° S
SL-16 R/B 3.1 13:49:44 10° SSW 13:55:14 46° ESE 14:00:42 10° NE
USA 229 DEB 3.2 13:49:54 10° SW 13:56:10 64° WNW 13:56:34 63° NW
USA 229 3.2 13:50:09 10° SW 13:56:25 65° WNW 13:56:50 63° NW
Meteor 2-10 Rocket 3.5 13:57:00 64° W 13:57:15 66° WSW 14:02:36 10° S
Resurs 1-4 Rocket 2.0 13:57:11 66° N 13:57:58 84° WNW 14:03:22 10° SSW
Cosmos 1821 Rocket 4.2 13:56:40 41° NNE 13:58:55 68° E 14:05:16 10° SSE
Cosmos 1633 Rocket 3.6 13:59:04 49° ENE 13:59:28 51° E 14:03:45 10° SSE
Meteor 2-19 Rocket 4.3 13:54:05 10° S 14:00:13 78° W 14:01:35 55° NNW
Tiangong 0.1 14:03:01 23° E 14:03:01 23° E 14:04:25 10° E
Cosmos 2219 3.5 14:00:53 49° NNE 14:02:12 62° ENE 14:07:55 10° SSE
H-2A R/B 3.3 14:00:51 14° NE 14:04:53 38° ESE 14:09:45 10° S
Cosmos 2366 rocket 4.0 14:04:07 53° NW 14:05:31 69° W 14:11:52 10° S
Okean 1-7 3.7 14:02:52 10° S 14:06:57 47° E 14:07:57 39° ENE
Cosmos 1862 Rocket 3.8 14:04:09 10° S 14:08:33 66° E 14:09:15 56° NE
Cosmos 2228 Rocket 3.6 14:07:24 10° S 14:11:48 54° E 14:13:08 38° NE
IDEFIX/ARIANE 42P 4.2 14:14:37 19° WSW 14:14:37 19° WSW 14:17:17 10° SW
ATLAS 3B R/B 2.6 14:07:34 10° SW 14:13:41 52° WNW 14:14:47 47° NNW
GEOS 3 Rocket 3.5 14:10:12 10° SE 14:15:18 77° NE 14:16:21 56° NNW
Cosmos 724 4.2 14:16:26 50° NNW 14:17:59 78° ENE 14:23:47 10° SSE
Cosmos 2297 Rocket 4.1 14:17:45 15° WSW 14:19:44 18° SW 14:23:35 10° S
H-2A R/B 4.2 14:22:01 10° SE 14:25:00 22° E 14:26:38 17° NE
Cosmos 2218 Rocket 4.4 14:25:57 39° WNW 14:27:45 50° WSW 14:34:01 10° S
Cosmos 494 Rocket 3.9 14:26:53 49° NNW 14:28:21 90° WNW 14:33:38 10° SSE
NOAA 11 4.5 14:29:03 43° WNW 14:29:44 45° W 14:35:00 10° SSW
Cosmos 1680 Rocket 3.7 14:28:41 46° WNW 14:29:56 58° WSW 14:35:13 10° S
Cosmos 1607 4.0 14:29:01 40° NNW 14:31:32 87° ENE 14:38:00 10° SSE
Cosmos 2237 Rocket 3.6 14:29:26 10° SW 14:32:45 22° W 14:32:45 22° W
Cosmos 1707 Rocket 3.5 14:30:34 10° SSW 14:34:54 63° W 14:35:27 57° NW
ALOS 2.4 14:37:57 46° WNW 14:38:21 48° W 14:42:50 10° SSW
Cosmos 1420 Rocket 4.1 14:33:53 10° SSW 14:38:58 53° WNW 14:40:22 41° NNW
Meteor 2-5 Rocket 4.3 14:33:14 10° S 14:39:10 60° ESE 14:45:02 10° NNE
Cosmos 1624 Rocket 3.9 14:35:59 10° SSW 14:41:21 90° ESE 14:45:41 15° NNE
Cosmos 1818 3.7 14:41:32 10° SSW 14:46:58 76° ESE 14:52:22 10° NE
Cosmos 1666 Rocket 4.2 14:46:36 35° W 14:47:07 36° WSW 14:51:14 10° S
Cosmos 1048 Rocket 4.2 14:44:32 30° N 14:47:14 71° ENE 14:52:38 10° SSE
Cosmos 1328 3.9 14:44:19 10° S 14:47:58 64° E 14:49:44 28° NNE
Meteor 1-22 Rocket 4.4 14:47:13 32° NNW 14:50:05 67° W 14:56:04 10° S
USA 308 2.4 14:48:00 10° SW 14:51:16 82° SE 14:55:23 10° NE
Meteor 2-14 Rocket 4.4 14:49:15 10° SSW 14:55:26 66° W 14:59:41 21° N
SL-08 R/B 4.5 14:51:29 23° N 14:55:35 87° W 15:02:02 10° S
SL-4 R/B 4.4 14:53:39 10° SW 14:56:54 23° SSE 15:00:01 10° ESE
ADEOS II 2.7 14:58:05 31° NW 14:59:21 35° W 15:04:11 10° SSW
Envisat 3.8 15:00:16 28° WNW 15:01:04 30° W 15:05:33 10° SW
Cosmos 1900 4.2 14:58:56 32° NNW 15:01:11 86° ENE 15:06:04 10° SSE
CZ-2C R/B 4.1 15:01:25 10° SSW 15:05:25 22° WSW 15:07:22 18° W
Cosmos 2227 Rocket 4.1 15:05:15 12° W 15:08:11 17° SW 15:11:50 10° S
METEOR-M 4.4 15:08:12 21° NNW 15:11:29 48° W 15:16:42 10° SSW
Meteor 2-21 Rocket 4.5 15:06:06 10° S 15:12:25 90° NE 15:18:37 10° N
ADEOS Rocket 3.6 15:06:13 11° N 15:13:39 56° W 15:20:53 10° SSW
Cosmos 381 Rocket 4.5 15:09:21 22° NNW 15:13:43 79° WSW 15:20:08 10° SSE
Cosmos 1703 Rocket 3.4 15:09:57 10° S 15:14:20 77° W 15:18:07 13° N
Cosmos 1867 3.6 15:11:53 23° NNW 15:15:19 84° ENE 15:20:45 10° SSE
H-2A R/B 3.5 15:17:36 19° W 15:17:36 19° W 15:20:31 10° SW
MOS 1-B Rocket 4.3 15:10:10 10° NNE 15:17:40 89° ESE 15:24:07 10° SSW
ARGOS 3.2 15:12:22 10° NNE 15:17:46 82° ESE 15:23:14 10° SSW
CZ-2C R/B 2.7 15:14:03 10° NNE 15:19:03 70° ESE 15:23:57 10° S
Meteor 2-8 Rocket 4.4 15:16:15 15° NNW 15:21:25 79° W 15:27:38 10° S
Cosmos 2227 4.2 15:17:29 19° NNW 15:21:35 89° WSW 15:27:18 10° SSE
Cosmos 1953 2.9 15:23:10 26° WNW 15:24:29 35° WSW 15:27:56 10° S
ARIANE 6 FM1 Upper Stage 3.9 15:22:48 19° W 15:25:19 34° SW 15:29:28 10° SSE
Cosmos 1844 3.8 15:20:58 15° NNW 15:25:35 75° ENE 15:31:14 10° SSE
Meteor 1-12 Rocket 4.3 15:22:39 14° NNW 15:27:49 78° W 15:33:38 10° S
Cosmos 2056 Rocket 4.3 15:25:42 10° SW 15:30:20 31° W 15:34:01 15° NNW
PAYLOAD A 4.0 15:26:23 10° NNE 15:31:12 77° ESE 15:35:58 10° S
Meteor 1-24 Rocket 4.2 15:25:41 10° SSW 15:31:27 46° W 15:37:05 10° NNW
Meteor 1-16 Rocket 4.2 15:28:01 14° NNW 15:32:40 67° W 15:38:05 10° S
Delta 2 Rocket 3.4 15:32:14 26° NW 15:33:11 32° N 15:35:58 10° NE
CZ-2D R/B 4.0 15:33:24 12° W 15:33:48 12° W 15:35:38 10° WSW
CZ-4C R/B 3.2 15:28:53 16° NW 15:36:21 76° SW 15:43:58 10° SSE
Cosmos 2263 Rocket 4.0 15:32:45 11° W 15:36:24 18° SW 15:40:15 10° S
ACS3 Solar Sail 2.3 15:31:14 10° NNW 15:37:01 41° W 15:42:55 10° SSW
Tiangong -2.1 15:35:21 13° W 15:38:11 61° NNW 15:41:25 10° ENE
Cosmos 1844 Rocket 2.7 15:34:04 15° NNW 15:38:51 76° WSW 15:44:35 10° SSE
SL-16 R/B 3.3 15:34:30 10° SW 15:38:58 24° W 15:42:43 13° NNW
Cosmos 1605 Rocket 4.1 15:33:48 10° N 15:40:08 88° E 15:46:38 10° S
Cosmos 1933 Rocket 4.2 15:40:05 16° NW 15:43:11 39° WSW 15:47:25 10° S
H-2A R/B 3.1 15:41:21 15° NW 15:44:17 24° W 15:48:32 10° SW
H-2A R/B 3.3 15:43:21 10° NNE 15:47:13 88° ESE 15:51:10 10° SSW
SL-08 RB Rocket 3.6 15:45:14 10° N 15:49:39 79° W 15:54:09 10° SSW
Cosmos 614 Rocket 3.9 15:44:58 11° NNW 15:49:51 74° WSW 15:55:00 10° SSE
Spot 2 4.4 15:48:22 10° S 15:52:46 50° WSW 15:56:53 10° NNW
ATLAS CENTAUR R/B 1.2 15:51:32 16° WNW 15:53:36 40° SW 15:56:26 10° SSE
Cosmos 1939 Rocket 2.9 15:53:07 10° NNE 15:56:49 73° ESE 16:00:32 10° S
H-2A R/B 3.6 15:56:06 10° SSW 15:59:04 23° WSW 16:01:49 11° WNW
FengYun 1-2 T 4.5 15:56:07 10° NNE 16:01:47 82° ESE 16:07:31 10° SSW
Cosmos 1110 Rocket 4.4 15:58:07 10° SSW 16:03:04 42° WNW 16:07:58 10° N
BREEZE-M DEB (TANK) 3.4 15:51:12 10° WSW 16:03:31 77° NW 16:07:05 10° NE
MOZ.5/SAFIR/RUBIN 5/SL-8 4.5 16:01:45 10° S 16:05:59 36° WSW 16:10:14 10° NW
Cosmos 1302 Rocket 4.2 16:01:15 10° SSW 16:06:34 79° ESE 16:11:46 10° NNE
USA 308 4.2 16:13:14 10° W 16:15:32 15° NW 16:17:57 10° NNW
Cosmos 2242 Rocket 3.6 16:16:05 10° SSW 16:20:33 69° W 16:24:55 10° N
